Home > Weather > Worms > Past weeks

Flag for Germany Weather for the Past 2 Weeks in Worms, Rhineland-Palatinate, Germany

Now
48 °F

Sunny.


Feels Like: 45 °F
Forecast: 46 / 55 °F
Wind: 7 mph from North

Location: Mannheim City

Current Time: May 2, 2016 at 8:53:02 AM

Latest Report: May 2, 2016 at 7:50 AM


Visibility: 10 mi

Pressure: 30.24 "Hg

Humidity: 76%

Dew Point: 41 °F

Location of WormsLocation

Historic Weather in Worms — Graph

°F

Worms Temperature Yesterday

Maximum temperature yesterday: 66 °F (at 3:50 PM)
Minimum temperature yesterday: 46 °F (at 8:20 AM)
Average temperature yesterday: 60 °F

High & Low Weather Summary for the Past Weeks

 TemperatureHumidityPressure
High72 °F (Apr 21, 4:50 PM)100% (Apr 17, 7:50 AM)30.42 "Hg (Apr 17, 7:50 AM)
Low36 °F (Apr 25, 6:50 AM)23% (Apr 21, 4:50 PM)29.59 "Hg (Apr 26, 5:50 AM)
Average51 °F59%30.02 "Hg
* Reported Apr 17 7:50 AM — May 2 6:50 AM, Worms, Weather by CustomWeather, © 2016

Note: Actual official high and low records may vary slightly from our data, if they occured in-between our weather recording intervals... More about our weather records

Advertising

Worms Weather History for the Previous 24 Hours

Scroll right to see more
 ConditionsComfort  
Time TempWeatherWind HumidityBarometerVisibility
6:50 AM
Mon, May 2
46 °FClear.7 mph82%30.24 "Hg10 mi
6:20 AM46 °FClear.7 mph82%30.24 "Hg10 mi
5:50 AM46 °FClear.7 mph82%30.24 "Hg10 mi
8:20 PM
Sun, May 1
63 °FScattered showers. Broken clouds.9 mph52%30.15 "HgN/A
7:50 PM64 °FScattered showers. Clear.14 mph46%30.15 "HgN/A
7:20 PM64 °FSunny.16 mph43%30.12 "Hg10 mi
6:50 PM64 °FSunny.13 mph43%30.12 "Hg10 mi
6:20 PM66 °FPassing clouds.17 mph37%30.09 "HgN/A
5:50 PM66 °FPassing clouds.16 mph40%30.09 "HgN/A
5:20 PM64 °FSunny.16 mph40%30.09 "Hg10 mi
4:50 PM66 °FPassing clouds.16 mph40%30.09 "HgN/A
4:20 PM66 °FPassing clouds.14 mph40%30.09 "HgN/A
3:50 PM66 °FPassing clouds.15 mph43%30.09 "HgN/A
3:20 PM64 °FPassing clouds.14 mph46%30.09 "HgN/A
2:50 PM64 °FPassing clouds.15 mph46%30.09 "HgN/A
2:20 PM63 °FPassing clouds.16 mph49%30.09 "HgN/A
1:50 PM63 °FPassing clouds.14 mph52%30.09 "HgN/A
1:20 PM61 °FPassing clouds.17 mph52%30.09 "HgN/A
12:50 PM59 °FPassing clouds.17 mph55%30.09 "HgN/A
12:20 PM57 °FPassing clouds.16 mph59%30.09 "HgN/A
11:50 AM55 °FPassing clouds.16 mph63%30.09 "HgN/A
11:20 AM54 °FPassing clouds.17 mph63%30.09 "HgN/A
10:50 AM54 °FPassing clouds.16 mph63%30.09 "HgN/A
10:20 AM52 °FPassing clouds.16 mph67%30.07 "HgN/A
9:50 AM52 °FScattered clouds.16 mph67%30.07 "HgN/A
8:50 AM48 °FPassing clouds.16 mph76%30.07 "HgN/A
8:20 AM46 °FPassing clouds.16 mph76%30.07 "HgN/A
Weather by CustomWeather, © 2016

See weather overviewHow to use our weather pages